[Date Prev][Date Next][Thread Prev][Thread Next] - [Date Index][Thread Index][Author Index]
2 Line ISS Keps 10-2
- Subject: [sarex] 2 Line ISS Keps 10-2
- From: "Dave Larsen PhD" <doc@xxxxxxxxxxx>
- Date: Sun, 2 Oct 2005 03:54:57 -0700
ISS
1 25544U 98067A 05275.19359954 .00014021 00000-0 10227-3 0 4699
2 25544 051.6431 072.8463 0001720 095.7503 249.5389 15.7359276239251
----
Via the sarex mailing list at AMSAT.ORG courtesy of AMSAT-NA.
To unsubscribe, send "unsubscribe sarex" to Majordomo@amsat.org
AMSAT Home